Ontario, OR

5:53 PM MDT on April 23, 2017 (GMT -0600)
Ontario Municipal

Weather History for KONO - July, 2014

Change the Weather History Date:

Saturday, July 5, 2014

  Actual Average Record
Temperature  
Mean Temperature 82 °F 74 °F  
Max Temperature 97 °F 91 °F 110 °F (2001)
Min Temperature 66 °F 57 °F 34 °F (1986)
Degree Days  
Heating Degree Days 0 0  
Month to date heating degree days 0 0  
Since 1 June heating degree days 28 52  
Since 1 July heating degree days 0 0  
Cooling Degree Days 17 9  
Month to date cooling degree days 75 43  
Year to date cooling degree days 280 218  
Since 1 June cooling degree days 232 182  
Growing Degree Days 32 (Base 50)    
Moisture  
Dew Point 44 °F    
Average Humidity 30    
Maximum Humidity 44    
Minimum Humidity 16    
Precipitation  
Precipitation 0.00 in 0.01 in 0.14 in (1961)
Month to date precipitation T 0.07  
Year to date precipitation 5.00 5.83  
Sea Level Pressure  
Sea Level Pressure 29.95 in    
Wind  
Wind Speed 5 mph (South)    
Max Wind Speed 20 mph    
Max Gust Speed 24 mph    
Visibility 10 miles    
Events      
T = Trace of Precipitation, MM = Missing Value Source: NWS Daily Summary

Daily Weather History Graph

Daily Weather History Graph

Search for Another Location

Airport or City:

Trip Planner

Search our weather history database for the weather conditions in past years. The results will help you decide how hot, cold, wet, or windy it might be!

Date:

Astronomy

Jul. 05, 2014 Rise Set
Actual Time 6:11 AM MDT 9:33 PM MDT
Civil Twilight 5:35 AM MDT 10:09 PM MDT
Nautical Twilight 4:48 AM MDT 10:56 PM MDT
Astronomical Twilight 3:50 AM MDT 11:54 PM MDT
Moon 2:27 PM MDT (7/5) 1:12 AM MDT (7/5)
Length of Visible Light 16h 33m
Length of Day
15h 22m
First Quarter, 53% of the Moon is Illuminated
Jul 5
First Quarter
Jul 12
Full
Jul 18
Last Quarter
Jul 26
New
Aug 3
First Quarter

Hourly Weather History & Observations

Time (MDT) Temp. Heat Index Dew Point Humidity Pressure Visibility Wind Dir Wind Speed Gust Speed Precip Events Conditions
12:53 AM 80.1 °F - 39.9 °F 24% 29.83 in 10.0 mi NW 13.8 mph - 0.00 in   Clear
1:53 AM 79.0 °F - 37.9 °F 23% 29.86 in 10.0 mi NW 11.5 mph - 0.00 in   Clear
2:53 AM 75.9 °F - 39.0 °F 26% 29.89 in 10.0 mi WSW 6.9 mph - N/A   Clear
3:53 AM 73.9 °F - 39.0 °F 28% 29.91 in 10.0 mi WSW 5.8 mph - N/A   Clear
4:53 AM 75.9 °F - 37.0 °F 24% 29.93 in 10.0 mi WNW 8.1 mph - N/A   Clear
5:53 AM 68.0 °F - 45.0 °F 43% 29.96 in 10.0 mi WSW 4.6 mph - N/A   Clear
6:53 AM 68.0 °F - 45.0 °F 43% 29.99 in 10.0 mi Calm Calm - N/A   Clear
7:53 AM 70.0 °F - 45.0 °F 41% 30.00 in 10.0 mi WSW 4.6 mph - N/A   Clear
8:53 AM 73.0 °F - 46.9 °F 39% 30.03 in 10.0 mi SW 5.8 mph - N/A   Clear
9:53 AM 80.1 °F - 43.0 °F 27% 30.04 in 10.0 mi WSW 5.8 mph - N/A   Clear
10:53 AM 82.9 °F - 44.1 °F 25% 30.04 in 10.0 mi South 3.5 mph - N/A   Clear
11:53 AM 86.0 °F - 44.1 °F 23% 30.03 in 10.0 mi East 4.6 mph - N/A   Clear
12:53 PM 90.0 °F - 37.9 °F 16% 30.02 in 10.0 mi Calm Calm - N/A   Clear
1:53 PM 91.9 °F - 41.0 °F 17% 30.00 in 10.0 mi ESE 6.9 mph - N/A   Clear
2:53 PM 95.0 °F - 43.0 °F 17% 29.98 in 10.0 mi East 6.9 mph - N/A   Clear
3:53 PM 96.1 °F - 45.0 °F 17% 29.96 in 10.0 mi East 5.8 mph - N/A   Clear
4:53 PM 96.1 °F - 43.0 °F 16% 29.94 in 10.0 mi Variable 6.9 mph - N/A   Clear
5:53 PM 96.1 °F - 46.9 °F 19% 29.93 in 10.0 mi East 8.1 mph - N/A   Clear
6:53 PM 93.9 °F - 51.1 °F 23% 29.91 in 10.0 mi ESE 3.5 mph - N/A   Clear
7:53 PM 93.0 °F 91.4 °F 55.9 °F 29% 29.90 in 10.0 mi East 3.5 mph - N/A   Clear
8:53 PM 93.9 °F - 41.0 °F 16% 29.90 in 10.0 mi Calm Calm - N/A   Clear
9:53 PM 84.0 °F - 46.0 °F 26% 29.91 in 10.0 mi Variable 3.5 mph - N/A   Clear
10:53 PM 77.0 °F - 53.1 °F 43% 29.94 in 10.0 mi Calm Calm - N/A   Clear
11:53 PM 73.9 °F - 50.0 °F 43% 29.95 in 10.0 mi Calm Calm - N/A   Clear